This is the latest recevied weather packets stored in our database for station/object N8BAP. If no packets are shown the sender has not sent any weather packets the latest 10 day(s).
| Time | Temp. | Humidity | Pressure | Rain* | Wind** | Luminosity | Snow |
|---|---|---|---|---|---|---|---|
| 1788484110 | 26.11° C | 81% | 1021.4 hPa | 0 mm | - | 0 W/m² | - |
| 1788483807 | 26.11° C | 82% | 1021.6 hPa | 0 mm | - | 0 W/m² | - |
| 1788483501 | 26.11° C | 83% | 1021.4 hPa | 0 mm | - | 0 W/m² | - |
| 1788483197 | 26.11° C | 85% | 1021.4 hPa | 0 mm | - | 0 W/m² | - |
| 1788482891 | 26.11° C | 84% | 1021.2 hPa | 0 mm | - | 0 W/m² | - |
| 1788482588 | 26.11° C | 84% | 1021.4 hPa | 0 mm | - | 0 W/m² | - |
| 1788482283 | 26.67° C | 83% | 1021.1 hPa | 0 mm | - | 0 W/m² | - |
| 1788481979 | 27.22° C | 81% | 1021.4 hPa | 0 mm | - | 0 W/m² | - |
| 1788481674 | 27.22° C | 78% | 1021.3 hPa | 0 mm | - | 0 W/m² | - |
| 1788481370 | 27.78° C | 77% | 1021.4 hPa | 0 mm | - | 0 W/m² | - |
| 1788481069 | 27.78° C | 77% | 1021.3 hPa | 0 mm | - | 0 W/m² | - |
| 1788480764 | 28.33° C | 75% | 1021.4 hPa | 0 mm | - | 0 W/m² | - |
| 1788480459 | 28.33° C | 75% | 1021.4 hPa | 0 mm | - | 0 W/m² | - |
| 1788480154 | 28.89° C | 74% | 1021.3 hPa | 0 mm | - | 2 W/m² | - |
| 1788479853 | 29.44° C | 72% | 1021.3 hPa | 0 mm | - | 4 W/m² | - |
| 1788479550 | 29.44° C | 70% | 1021.3 hPa | 0 mm | - | 8 W/m² | - |
| 1788479243 | 30° C | 69% | 1021.1 hPa | 0 mm | - | 11 W/m² | - |
| 1788478940 | 30.56° C | 67% | 1021 hPa | 0 mm | - | 15 W/m² | - |
| 1788478636 | 30.56° C | 66% | 1021 hPa | 0 mm | - | 20 W/m² | - |
| 1788478332 | 31.11° C | 65% | 1021 hPa | 0 mm | - | 24 W/m² | - |
| 1788478030 | 31.11° C | 64% | 1020.9 hPa | 0 mm | - | 29 W/m² | - |
| 1788477727 | 31.67° C | 62% | 1020.9 hPa | 0 mm | - | 35 W/m² | - |
| 1788477425 | 31.67° C | 63% | 1021 hPa | 0 mm | - | 40 W/m² | - |
| 1788477121 | 31.67° C | 60% | 1021 hPa | 0 mm | - | 47 W/m² | - |
| 1788476817 | 32.22° C | 61% | 1020.9 hPa | 0 mm | - | 52 W/m² | - |
* Rain latest hour (hover to see other rain measurements)
** Current wind speed in m/s (hover to see current wind gust speed)